Regional Weather Roundup
Issued by NWS

Home | Current Version | Previous Version | Text Only | Print | Product List | Glossary On
Versions: 1 2 3 4 5 6 7 8 9 10 11 12 13 14 15 16 17 18 19 20 21 22 23 24 25 26 27 28 29 30 31 32 33 34 35 36 37 38 39 40 41 42 43 44 45 46 47 48 49 50
000
ASUS46 KLOX 120212
RWRCA

SOUTHERN CALIFORNIA WEATHER ROUNDUP
NATIONAL WEATHER SERVICE OXNARD CALIFORNIA
700 PM PDT FRI JUL 11 2014

NOTE: "FAIR" INDICATES FEW OR NO CLOUDS BELOW 12,000 FEET WITH NO
SIGNIFICANT WEATHER AND/OR OBSTRUCTIONS TO VISIBILITY.

  -  STATIONS PRECEEDED BY AN ASTERISK (*) ARE NOT NWS OR FAA
     STATIONS AND ARE NOT SUBJECT TO NWS AND FAA QUALITY CONTROL.

CAZ041-042-087-120300-
LA AND ORANGE COUNTY COASTAL AREAS


CITY           SKY/WX    TMP DP  RH WIND       PRES   REMARKS
L.A. DOWNTOWN  SUNNY     72  60  66 VRB3      29.96R
L.A. AIRPORT   MOSUNNY   70  61  73 W17       29.97S
LONG BEACH     SUNNY     73  61  65 W13       29.95S

CITY           SKY/WX    TMP DP  RH WIND       PRES   REMARKS
AVALON           N/A     73 N/A N/A MISG        N/A
FULLERTON      SUNNY     79  59  50 W8        29.94S
HAWTHORNE      SUNNY     71  62  73 W13       29.97R
*LOS ALAMITOS  MOSUNNY   77  62  59 W10       29.95S
SANTA ANA      MOSUNNY   75  59  57 SW8       29.96S
STA MONICA APT SUNNY     71  61  70 SW12      29.97S
TORRANCE       MOSUNNY   73  64  73 W17       29.97S
*UCLA            N/A     68  59  73 SW8       29.94R

$$

CAZ547-548-048-120300-
LA COUNTY VALLEYS AND INLAND EMPIRE


CITY           SKY/WX    TMP DP  RH WIND       PRES   REMARKS
BURBANK        SUNNY     77  56  48 S9        29.95R
VAN NUYS       SUNNY     83  56  39 E7        29.94S

CITY           SKY/WX    TMP DP  RH WIND       PRES   REMARKS
CORONA AIRPORT CLEAR     80  59  48 CALM      29.94S
CHINO          MOSUNNY   79  59  50 SW16      29.94S
*CLAREMONT       N/A     79  52  38 SW10        N/A
MARCH AFB      SUNNY     82  54  37 NW17      29.97R
*NORTHRIDGE      N/A     82  46  28 W2          N/A
ONTARIO        PTSUNNY   82  55  39 W13       29.94S
*PASADENA        N/A     75  59  57 CALM        N/A
POMONA         SUNNY     77  55  47 W14       29.99
RIVERSIDE      SUNNY     82  56  40 W13       29.94R
SAN BERNARDINO SUNNY     84  52  32 W14       29.95R
*SAN GABRIEL     N/A     76  57  51 CALM      29.91F
*WHITEMAN AP   NOT AVBL
*WOODLAND HILL   N/A     84  50  30 W6          N/A

$$

CAZ054-055-120300-
LA AND SAN BERNARDINO COUNTY MOUNTAINS


CITY           SKY/WX    TMP DP  RH WIND       PRES   REMARKS
*ACTON           N/A     88  48  24 SW9G21      N/A
*BIG BEAR AIRP PTCLDY    64  41  42 W9        30.25R
*BIG PINES       N/A     63  36  37 CALM        N/A
*CHILAO          N/A     73  45  36 SW6         N/A
MT WILSON NWS    N/A     70  50  49 MISG        N/A
SANDBERG       SUNNY     78  45  30 NW13G22   30.14S
*WARM SPRINGS    N/A     77  51  39 SW3         N/A

$$

CAZ028-029-059-060-099-120300-
ANTELOPE VALLEY AND SURROUNDING AREAS


CITY           SKY/WX    TMP DP  RH WIND       PRES   REMARKS
LANCASTER      SUNNY     84  47  27 SW20      29.97R
PALMDALE       SUNNY     84  47  27 SW20      29.98S

CITY           SKY/WX    TMP DP  RH WIND       PRES   REMARKS
29 PALMS       MOSUNNY   95  41  15 SW15      29.93R HX  91
BARSTOW/DAGGET SUNNY     98  33  10 SW22      29.87R HX  92
BISHOP         SUNNY     93  30  10 S20G26    29.95R
CHINA LAKE     MOSUNNY   95  42  16 S13       29.88S HX  91
EDWARDS AFB    MOSUNNY   89  46  22 SW22G29   29.93S
MOJAVE         FAIR      84  45  24 W26G32    29.98S
NEEDLES        MOCLDY   104  35   9 S12       29.78R HX  98
VICTORVILLE    SUNNY     88  37  16 W17G23    29.98S

$$

CAZ039-040-120300-
VENTURA AND SANTA BARBARA COUNTY COAST


CITY           SKY/WX    TMP DP  RH WIND       PRES   REMARKS
CAMARILLO      MOSUNNY   70  59  68 W13       29.97S
NWS OXNARD       N/A     68  59  73 W9        29.97R
OXNARD AIRPORT SUNNY     68  59  73 MISG      29.97R
*POINT MUGU    MOSUNNY   69  60  73 W15       29.99R
SBA APT/GOLETA SUNNY     70  59  68 W6        29.96F
*SANTA BARBARA   N/A     73  59  61 CALM      30.04F
*VENTURA         N/A     69  59  70 SW9       29.99S

$$

CAZ044-045-120300-
VENTURA COUNTY VALLEYS


CITY           SKY/WX    TMP DP  RH WIND       PRES   REMARKS
*SIMI VALLEY     N/A     74  58  58 W7        29.93R
*OJAI            N/A     76  58  53 W1        29.90R
*FILLMORE        N/A     79  62  55 CALM      29.87R

$$

CAZ053-120300-
VENTURA COUNTY MOUNTAINS


CITY           SKY/WX    TMP DP  RH WIND       PRES   REMARKS
*LOCKWOOD VLY    N/A     73  43  33 MISG        N/A
*ROSE VALLEY     N/A     79  55  44 MISG        N/A

$$

CAZ034-035-036-120300-
CENTRAL COAST AND SANTA YNEZ VALLEY


CITY           SKY/WX    TMP DP  RH WIND       PRES   REMARKS
SAN LUIS OBISP SUNNY     65  55  70 NW15      30.02R
SANTA MARIA    SUNNY     67  55  65 NW12      30.03R

CITY           SKY/WX    TMP DP  RH WIND       PRES   REMARKS
*CAMBRIA         N/A     62  57  82 E8        29.93S
*LOMPOC        SUNNY     64  54  68 W12       30.04S
*PISMO BEACH     N/A     65  59  81 W3        30.02S

$$

CAZ037-038-051-120300-
SAN LUIS OBISPO COUNTY INTERIOR AND CUYAMA VALLEY


CITY           SKY/WX    TMP DP  RH WIND       PRES   REMARKS
*CUYAMA          N/A     84  47  27 W13       29.88R
PASO ROBLES    SUNNY     74  50  42 S21       29.96S

$$

CAZ032-033-061-120300-
SOUTHERN DESERTS


CITY           SKY/WX    TMP DP  RH WIND       PRES   REMARKS
BLYTHE         MOCLDY   102  38  11 SW12      29.76S HX  96
IMPERIAL       LGT RAIN  96  44  16 W21G28    29.75R HX  92
PALM SPRINGS   PTSUNNY   99  51  19 NW21G28   29.78S HX  96
THERMAL        CLOUDY   102  48  16 MISG      29.71S HX  98

$$

ELSEWHERE ACROSS THE WESTERN UNITED STATES AND MEXICO


CITY           SKY/WX    TMP DP  RH WIND       PRES   REMARKS
DENVER, CO     CLOUDY    70  63  78 W7        30.18R
GRAND CANYON,  CLEAR     78  44  29 N3        30.23R
HONOLULU, HI   PTSUNNY   86  63  45 NE17      29.96F
KAHULUI, MAUI  MOSUNNY   84  68  58 NE24G32   29.94F
LAKE TAHOE, CA MOSUNNY   74  44  34 S10       30.22R
LAS VEGAS, NV  MOSUNNY   99  33  10 S13       29.83R HX  93
MAMMOTH LAKES, FAIR      75  41  29 NW17G23   30.22R
MEXICO CITY, M MOCLDY    66  54  63 NE17      30.31R
PHOENIX, AZ    MOCLDY   104  50  16 W10       29.78R HX 101
PORTLAND, OR   CLOUDY    85  60  42 E7        29.93S
RENO, NV       PTSUNNY   86  46  24 NE9       30.06R
SALT LAKE CITY PTCLDY    84  56  38 N10       30.05R
SAN DIEGO, CA  PTSUNNY   73  61  65 NW9       29.98S
SAN FRANCISCO, MOSUNNY   66  54  65 W20       30.04R
SAN JOSE, CA   MOSUNNY   68  56  65 NW16      30.01R
SEATTLE, WA    MOSUNNY   85  55  35 W6        29.97S
TIJUANA, MEX   PTSUNNY   70  59  68 W14       30.00R

$$

STATION/POSITION TIME  TEMP    WIND        PRES    VSBY  WAVE
                       AIR SEA DIR/SP/G                  HT/PER
                 (UTC) (F)     (DEG/KT/KT) (MB)    (MI)  (FT/S)
POINT ARGUELLO B NOT AVBL
WEST SANTA BARBA 0200   61 63  310/ 21/ 25 1015.1S         4/10
POINT CONCEPTION NOT AVBL
EAST SANTA BARBA 0200   64 68  270/ 17/ 19 1015.0F
SANTA MONICA BAY 0200   66 71  280/ 16/ 17 1014.5F         4/ 5


USA.gov is the U.S. government's official web portal to all federal, state and local government web resources and services.